Tracking 25734 objects as of 28-May-2022
HD Live streaming from Space Station
objects crossing your sky now

NOAA 17 DEB

Track NOAA 17 DEB now!
10-day predictions


NORAD ID: 49485
Int'l Code: 2002-032DP
Perigee: 773.4 km
Apogee: 825.7 km
Inclination: 98.9 °
Period: 100.7 minutes
Semi major axis: 7170 km
RCS: Unknown
Launch date: June 24, 2002
Source: United States (US)
Launch site: AIR FORCE WESTERN TEST RANGE (AFWTR)

Note: This is SATELLITE DEBRIS
aabbcc
Your satellite tracking list
Your tracking list is empty




NASA's NSSDC Master Catalog

Two Line Element Set (TLE):
1 49485U 02032DP  22146.67608059  .00004290  00000-0  16744-2 0  9992
2 49485  98.8687 105.4893 0036476  65.6544 294.8438 14.29799382 48288
Source of the keplerian elements: AFSPC